MUOS-5

Last updated on Sat Aug 22 2026 00:02:59 GMT+0000 (Coordinated Universal Time)

1 41622U 16041A 26233.46137444 -.00000153 00000+0 00000+0 0 9994 2 41622 2.0693 303.0451 0202263 260.5494 187.2598 1.00272823 37744
UTC large
Height (km)
Speed (km/s)
/
Latitude / Longitude
Inclination (degrees)
Orbital Period (minutes)
Azimuth
Elevation
Range (km)
Doppler Factor

Next 0 passes for location: London (51.5072 / 0.1276)

No passes found over London.
MUOS-5